Regional Weather Roundup
Issued by NWS Midland/Odessa, TX

Home | Current Version | Previous Version | Text Only | Print | Product List | Glossary On
Versions: 1 2 3 4 5 6 7 8 9 10 11 12 13 14 15 16 17 18 19 20 21 22 23 24 25 26 27 28 29 30 31 32 33 34 35 36 37 38 39 40 41 42 43 44 45 46 47 48 49 50
000
ASUS44 KMAF 241310
RWRMAF
MIDLAND AREA WEATHER ROUNDUP
NATIONAL WEATHER SERVICE MIDLAND TX
800 AM CDT SUN SEP 24 2017

...IN SOUTHWEST TEXAS AND SOUTHEAST NEW MEXICO...

CITY           SKY/WX    TMP DP  RH WIND       PRES   REMARKS
ALPINE         CLOUDY    65  59  79 CALM      29.99R
ANDREWS        CLOUDY    67  67 100 S5        29.88R
ARTESIA        CLEAR     61  61 100 CALM      29.87R
BIG SPRING     CLOUDY    68  66  92 SE6       29.90S
CARLSBAD       CLEAR     62  62 100 S6        29.85R
DRYDEN           N/A     73  69  87 SE12      29.83R
FORT STOCKTON  NOT AVBL
GUAD PASS      NOT AVBL
HOBBS          CLEAR     64  63  94 SW7       29.89R
MARFA          NOT AVBL
MIDLAND AIRPK  CLOUDY    72  66  83 SE10      29.88R
MIDLAND INTL   CLOUDY    72  67  84 SE10      29.87R
ODESSA         CLOUDY    71  68  90 S14       29.88R
PECOS          CLEAR     65  64  97 CALM      29.85R
PRESIDIO       FAIR      72  64  74 N6        29.85R
SEMINOLE       CLOUDY    65  65  98 SE6       29.89S
SNYDER         HVY RAIN  67  66  94 S8        29.91R
WINK           CLEAR     67  66  97 CALM      29.84R
$$
...OTHER STATIONS IN TEXAS...

CITY           SKY/WX    TMP DP  RH WIND       PRES   REMARKS
ABILENE        MOCLDY    70  67  90 S12       29.91R
AMARILLO       NOT AVBL
AUSTIN         FOG       73  72  96 SE3       29.89R VSB 1/4
BROWNSVILLE    CLEAR     77  76  96 CALM      29.81S
CORPUS CHRISTI PTCLDY    76  74  93 SE5       29.83R
DALLAS FTW     MOCLDY    74  70  87 S6        29.90R
DEL RIO        CLOUDY    74  72  93 SE13      29.83R
EL PASO        PTCLDY    68  45  43 W3        29.88R
HOUSTON INT    PTCLDY    73  72  96 NE6       29.89R
LUBBOCK        CLOUDY    65  64  97 SE9       29.90R
SAN ANGELO     CLOUDY    73  64  73 SE6       29.89R
SAN ANTONIO    CLOUDY    76  73  91 SE8       29.88R
WACO           MOCLDY    73  71  93 S8        29.91R
WICHITA FALLS  NOT AVBL
$$
...OTHER LOCATIONS IN NEW MEXICO...

CITY           SKY/WX    TMP DP  RH WIND       PRES   REMARKS
ALAMOGORDO     CLOUDY    59  43  55 SE3       29.92R
ALBUQUERQUE    PTCLDY    54  25  32 SW7       29.96R
CANNON AFB     CLOUDY    63  63 100 S10       29.91S
CLOVIS         CLOUDY    63  62  97 S10       29.92R
HOLLOMAN AFB   MOCLDY    61  48  62 CALM      29.92R
ROSWELL        CLOUDY    64  63  96 S9        29.86R
RUIDOSO        CLEAR     55  36  47 SW20      30.02R
SANTA FE       CLOUDY    46  46 100 NW3       29.97R
TRUTH OR CONSE CLEAR     58  33  39 NW3       29.92R
TUCUMCARI      CLOUDY    66  62  87 S9        29.85R
$$



USA.gov is the U.S. government's official web portal to all federal, state and local government web resources and services.